QPF
0.00 0.00 0.00 0.00 0.00 0.00 0.00 0.00 0.00 0.00 0.00 0.00 0.00 0.00 0.00 0.00 0.00 0.00 0.00 0.00 0.00 0.00 0.00 0.00 0.00 0.00 0.00 0.00 0.00 0.00 0.00 0.00 0.00 0.00 0.00 0.00 0.00 0.00 0.00 0.00 0.00 0.00
0.00 0.00 0.00 0.00 0.00 0.00 0.00 0.00 0.00 0.00 0.00 0.00 0.00 0.00 0.00 0.00 0.00 0.00 0.00 0.00 0.00 0.00 0.00 0.00 0.00 0.00 0.00 0.00 0.00 0.00 0.00 0.00 0.00 0.00 0.00 0.00 0.00 0.00 0.00 0.00 0.00 0.00
0.00 0.00 0.00 0.00 0.00 0.00 0.00 0.00 0.00 0.00 0.00 0.00 0.00 0.00 0.00 0.00 0.00 0.00 0.00 0.00 0.00 0.00 0.00 0.00 0.00 0.00 0.00 0.00 0.00 0.00 0.00 0.00 0.00 0.00 0.00 0.00 0.00 0.00 0.00 0.00 0.00 0.00
0.00 0.00 0.00 0.00 0.00 0.00 0.00 0.00 0.00 0.00 0.00 0.00 0.00 0.00 0.00 0.00 0.00 0.00 0.00 0.00 0.00 0.00 0.00 0.00 0.00 0.00 0.00 0.00 0.00 0.00 0.00 0.00 0.00 0.00 0.00 0.00 0.00 0.00 0.00 0.00 0.00 0.00
0.00 0.00 0.00 0.00 0.00 0.00 0.00 0.00 0.00 0.00 0.00 0.00 0.00 0.00 0.00 0.00 0.00 0.00 0.00 0.00 0.00 0.00 0.00 0.00 0.00 0.00 0.00 0.00 0.00 0.00 0.00 0.00 0.00 0.00 0.00 0.00 0.00 0.00 0.00 0.00 0.00 0.00
0.00 0.00 0.00 0.00 0.00 0.00 0.00 0.00 0.00 0.00 0.00 0.00 0.00 0.00 0.00 0.00 0.00 0.00 0.00 0.00 0.00 0.00 0.00 0.00 0.00 0.00 0.00 0.00 0.00 0.00 0.00 0.00 0.00 0.00 0.00 0.00 0.00 0.00 0.00 0.00 0.00 0.00
0.00 0.00 0.00 0.00 0.00 0.00 0.00 0.00 0.00 0.00 0.00 0.00 0.00 0.00 0.00 0.00 0.00 0.00 0.00 0.00 0.00 0.00 0.00 0.00 0.00 0.00 0.00 0.00 0.00 0.00 0.00 0.00 0.00 0.00 0.00 0.00 0.00 0.00 0.00 0.00 0.00 0.00
0.00 0.00 0.00 0.00 0.00 0.00 0.00 0.00 0.00 0.00 0.00 0.00 0.00 0.00 0.00 0.00 0.00 0.00 0.00 0.00 0.00 0.00 0.00 0.00 0.00 0.00 0.00 0.00 0.00 0.00 0.00 0.00 0.00 0.00 0.00 0.00 0.00 0.00 0.00 0.00 0.00 0.00
0.00 0.00 0.00 0.00 0.00 0.00 0.00 0.00 0.00 0.00 0.00 0.00 0.00 0.00 0.00 0.00 0.00 0.00 0.00 0.00 0.00 0.00 0.00 0.00 0.00 0.00 0.00 0.00 0.00 0.00 0.00 0.00 0.00 0.00 0.00 0.00 0.00 0.00 0.00 0.00 0.00 0.00
0.00 0.00 0.00 0.00 0.00 0.00 0.00 0.00 0.00 0.00 0.00 0.00 0.00 0.00 0.00 0.00 0.00 0.00 0.00 0.00 0.00 0.00 0.00 0.00 0.00 0.00 0.00 0.00 0.00 0.00 0.00 0.00 0.00 0.00 0.00 0.00 0.00 0.00 0.00 0.00 0.00 0.00
0.00 0.00 0.00 0.00 0.00 0.00 0.00 0.00 0.00 0.00 0.00 0.00 0.00 0.00 0.00 0.00 0.00 0.00 0.00 0.00 0.00 0.00 0.00 0.00 0.00 0.00 0.00 0.00 0.00 0.00 0.00 0.00 0.00 0.00 0.00 0.00 0.00 0.00 0.00 0.00 0.00 0.00
0.00 0.00 0.00 0.00 0.00 0.00 0.00 0.00 0.00 0.00 0.00 0.00 0.00 0.00 0.00 0.00 0.00 0.00 0.00 0.00 0.00 0.00 0.00 0.00 0.00 0.00 0.00 0.00 0.00 0.00 0.00 0.00 0.00 0.00 0.00 0.00 0.00 0.00 0.00 0.00 0.00 0.00
0.00 0.00 0.00 0.00 0.00 0.00 0.00 0.00 0.00 0.00 0.00 0.00 0.00 0.00 0.00 0.00 0.00 0.00 0.00 0.00 0.00 0.00 0.00 0.00 0.00 0.00 0.00 0.00 0.00 0.00 0.00 0.00 0.00 0.00 0.00 0.00 0.00 0.00 0.00 0.00 0.00 0.00
0.00 0.00 0.00 0.00 0.00 0.00 0.00 0.00 0.00 0.00 0.00 0.00 0.00 0.00 0.00 0.00 0.00 0.00 0.00 0.00 0.00 0.00 0.00 0.00 0.00 0.00 0.00 0.00 0.00 0.00 0.00 0.00 0.00 0.00 0.00 0.00 0.00 0.00 0.00 0.00 0.00 0.00
0.00 0.00 0.00 0.00 0.00 0.00 0.00 0.00 0.00 0.00 0.00 0.00 0.00 0.00 0.00 0.00 0.00 0.00 0.00 0.00 0.00 0.00 0.00 0.00 0.00 0.00 0.00 0.00 0.00 0.00 0.00 0.00 0.00 0.00 0.00 0.00 0.00 0.00 0.00 0.00 0.00 0.00
0.00 0.00 0.00 0.00 0.00 0.00 0.00 0.00 0.00 0.00 0.00 0.00 0.00 0.00 0.00 0.00 0.00 0.00 0.00 0.00 0.00 0.00 0.00 0.00 0.00 0.00 0.00 0.00 0.00 0.00 0.00 0.00 0.00 0.00 0.00 0.00 0.00 0.00 0.00 0.00 0.00 0.00
0.00 0.00 0.00 0.00 0.00 0.00 0.00 0.00 0.00 0.00 0.00 0.00 0.00 0.00 0.00 0.00 0.00 0.00 0.00 0.00 0.00 0.00 0.00 0.00 0.00 0.00 0.00 0.00 0.00 0.00 0.00 0.00 0.00 0.00 0.00 0.00 0.00 0.00 0.00 0.00 0.00 0.00
0.00 0.00 0.00 0.00 0.00 0.00 0.00 0.00 0.00 0.00 0.00 0.00 0.00 0.00 0.00 0.00 0.00 0.00 0.00 0.00 0.00 0.00 0.00 0.00 0.00 0.00 0.00 0.00 0.00 0.00 0.00 0.00 0.00 0.00 0.00 0.00 0.00 0.00 0.00 0.00 0.00 0.00
0.00 0.00 0.00 0.00 0.00 0.00 0.00 0.00 0.00 0.00 0.00 0.00 0.00 0.00 0.00 0.00 0.00 0.00 0.00 0.00 0.00 0.00 0.00 0.00 0.00 0.00 0.00 0.00 0.00 0.00 0.00 0.00 0.00 0.00 0.00 0.00 0.00 0.00 0.00 0.00 0.00 0.00
0.00 0.00 0.00 0.00 0.00 0.00 0.00 0.00 0.00 0.00 0.00 0.00 0.00 0.00 0.00 0.00 0.00 0.00 0.00 0.00 0.00 0.00 0.00 0.00 0.00 0.00 0.00 0.00 0.00 0.00 0.00 0.00 0.00 0.00 0.00 0.00 0.00 0.00 0.00 0.00 0.00 0.00
0.00 0.00 0.00 0.00 0.00 0.00 0.00 0.00 0.00 0.00 0.00 0.00 0.00 0.00 0.00 0.00 0.00 0.00 0.00 0.00 0.00 0.00 0.00 0.00 0.00 0.00 0.00 0.00 0.00 0.00 0.00 0.00 0.00 0.00 0.00 0.00 0.00 0.00 0.00 0.00 0.00 0.00
0.00 0.00 0.00 0.00 0.00 0.00 0.00 0.00 0.00 0.00 0.00 0.00 0.00 0.00 0.00 0.00 0.00 0.00 0.00 0.00 0.00 0.00 0.00 0.00 0.00 0.00 0.00 0.00 0.00 0.00 0.00 0.00 0.00 0.00 0.00 0.00 0.00 0.00 0.00 0.00 0.00 0.00
0.00 0.00 0.00 0.00 0.00 0.00 0.00 0.00 0.00 0.00 0.00 0.00 0.00 0.00 0.00 0.00 0.00 0.00 0.00 0.00 0.00 0.00 0.00 0.00 0.00 0.00 0.00 0.00 0.00 0.00 0.00 0.00 0.00 0.00 0.00 0.00 0.00 0.00 0.00 0.00 0.00 0.00
0.00 0.00 0.00 0.00 0.00 0.00 0.00 0.00 0.00 0.00 0.00 0.00 0.00 0.00 0.00 0.00 0.00 0.00 0.00 0.00 0.00 0.00 0.00 0.00 0.00 0.00 0.00 0.00 0.00 0.00 0.00 0.00 0.00 0.00 0.00 0.00 0.00 0.00 0.00 0.00 0.00 0.00
0.00 0.00 0.00 0.00 0.00 0.00 0.00 0.00 0.00 0.00 0.00 0.00 0.00 0.00 0.00 0.00 0.00 0.00 0.00 0.00 0.00 0.00 0.00 0.00 0.00 0.00 0.00 0.00 0.00 0.00 0.00 0.00 0.00 0.00 0.00 0.00 0.00 0.00 0.00 0.00 0.00 0.00
0.00 0.00 0.00 0.00 0.00 0.00 0.00 0.00 0.00 0.00 0.00 0.00 0.00 0.00 0.00 0.00 0.00 0.00 0.00 0.00 0.00 0.00 0.00 0.00 0.00 0.00 0.00 0.00 0.00 0.00 0.00 0.00 0.00 0.00 0.00 0.00 0.00 0.00 0.00 0.00 0.00 0.00
MSLP
1021.55 1021.79 1022.03 1022.27 1022.55 1022.71 1022.79 1022.95 1023.11 1023.39 1023.63 1023.75 1023.79 1023.79 1023.71 1023.63 1023.67 1023.71 1023.79 1023.83 1023.83 1023.91 1023.95 1023.91 1023.87 1023.87 1023.87 1023.83 1023.75 1023.63 1023.63 1023.67 1023.59 1023.59 1023.59 1023.67 1023.71 1023.63 1023.67 1023.67 1023.67 1023.71
1021.87 1022.07 1022.23 1022.47 1022.67 1022.83 1022.91 1023.03 1023.27 1023.51 1023.67 1023.71 1023.75 1023.71 1023.71 1023.71 1023.83 1023.87 1023.95 1024.07 1024.11 1024.15 1024.19 1024.15 1024.11 1024.07 1024.03 1023.99 1023.95 1023.91 1023.91 1023.91 1023.91 1023.87 1023.87 1023.91 1023.91 1023.79 1023.79 1023.87 1023.79 1023.79
1022.11 1022.35 1022.51 1022.67 1022.79 1022.91 1023.07 1023.23 1023.39 1023.51 1023.59 1023.67 1023.71 1023.75 1023.79 1023.87 1023.95 1024.07 1024.15 1024.27 1024.35 1024.39 1024.39 1024.35 1024.31 1024.23 1024.15 1024.15 1024.15 1024.19 1024.19 1024.19 1024.23 1024.15 1024.11 1024.15 1024.07 1024.07 1024.07 1024.03 1024.11 1024.15
1022.31 1022.47 1022.67 1022.75 1022.79 1022.95 1023.15 1023.31 1023.43 1023.51 1023.59 1023.67 1023.75 1023.83 1023.91 1023.99 1024.15 1024.31 1024.43 1024.47 1024.59 1024.63 1024.59 1024.55 1024.51 1024.43 1024.39 1024.39 1024.35 1024.39 1024.39 1024.39 1024.43 1024.31 1024.35 1024.35 1024.31 1024.27 1024.27 1024.31 1024.47 1024.63
1022.43 1022.55 1022.63 1022.75 1022.87 1023.07 1023.23 1023.35 1023.51 1023.63 1023.71 1023.79 1023.87 1023.95 1024.03 1024.23 1024.39 1024.55 1024.67 1024.79 1024.79 1024.83 1024.83 1024.79 1024.75 1024.75 1024.67 1024.67 1024.67 1024.59 1024.59 1024.59 1024.55 1024.51 1024.55 1024.59 1024.51 1024.39 1024.43 1024.55 1024.91 1025.07
1022.43 1022.51 1022.67 1022.87 1022.99 1023.11 1023.31 1023.47 1023.59 1023.71 1023.79 1023.91 1024.03 1024.15 1024.31 1024.47 1024.63 1024.79 1024.91 1024.99 1025.03 1025.07 1025.11 1025.11 1025.15 1025.11 1025.07 1025.07 1025.03 1024.91 1024.75 1024.75 1024.71 1024.67 1024.67 1024.67 1024.63 1024.63 1024.67 1024.99 1025.23 1025.43
1022.51 1022.59 1022.79 1022.91 1023.03 1023.19 1023.43 1023.59 1023.75 1023.83 1023.99 1024.07 1024.15 1024.31 1024.43 1024.63 1024.79 1024.99 1025.11 1025.19 1025.27 1025.39 1025.47 1025.55 1025.55 1025.51 1025.47 1025.43 1025.35 1025.27 1024.99 1024.87 1024.83 1024.79 1024.79 1024.79 1024.83 1024.91 1024.99 1025.31 1025.55 1025.67
1022.55 1022.67 1022.83 1022.99 1023.23 1023.43 1023.63 1023.79 1023.95 1024.07 1024.19 1024.27 1024.39 1024.51 1024.59 1024.83 1024.99 1025.15 1025.27 1025.43 1025.59 1025.75 1025.87 1025.91 1025.91 1025.91 1025.87 1025.79 1025.75 1025.67 1025.31 1025.03 1025.07 1024.95 1024.91 1025.07 1025.07 1025.23 1025.35 1025.59 1025.75 1025.83
1022.55 1022.75 1022.95 1023.19 1023.39 1023.59 1023.75 1023.91 1024.03 1024.19 1024.31 1024.43 1024.51 1024.59 1024.75 1024.95 1025.15 1025.31 1025.51 1025.71 1025.91 1026.11 1026.23 1026.31 1026.35 1026.31 1026.23 1026.15 1026.11 1025.99 1025.75 1025.23 1025.19 1025.07 1025.11 1025.27 1025.39 1025.51 1025.59 1025.79 1025.91 1025.99
1022.67 1022.95 1023.15 1023.43 1023.63 1023.83 1023.95 1024.11 1024.23 1024.35 1024.47 1024.51 1024.63 1024.75 1024.95 1025.11 1025.27 1025.55 1025.79 1026.03 1026.23 1026.43 1026.55 1026.67 1026.67 1026.63 1026.55 1026.51 1026.47 1026.27 1026.07 1025.71 1025.27 1025.19 1025.27 1025.39 1025.47 1025.55 1025.67 1025.87 1025.99 1025.99
1022.91 1023.11 1023.35 1023.55 1023.75 1023.87 1023.99 1024.11 1024.27 1024.47 1024.59 1024.67 1024.75 1024.95 1025.11 1025.27 1025.55 1025.79 1026.11 1026.35 1026.55 1026.75 1026.87 1026.95 1027.03 1026.99 1026.87 1026.79 1026.63 1026.47 1026.27 1026.07 1025.59 1025.35 1025.35 1025.47 1025.55 1025.59 1025.71 1025.87 1025.91 1025.83
1023.11 1023.27 1023.51 1023.71 1023.87 1023.95 1023.99 1024.11 1024.31 1024.47 1024.63 1024.75 1024.87 1025.11 1025.27 1025.47 1025.75 1026.07 1026.35 1026.67 1026.87 1027.03 1027.11 1027.19 1027.27 1027.27 1027.27 1027.15 1026.91 1026.71 1026.47 1026.19 1025.95 1025.51 1025.43 1025.43 1025.59 1025.67 1025.75 1025.79 1025.75 1025.83
1023.15 1023.35 1023.55 1023.75 1023.87 1023.95 1024.03 1024.19 1024.39 1024.59 1024.71 1024.87 1024.99 1025.19 1025.39 1025.67 1025.99 1026.31 1026.59 1026.87 1027.11 1027.23 1027.31 1027.39 1027.43 1027.47 1027.43 1027.31 1027.15 1026.95 1026.71 1026.43 1026.15 1025.83 1025.47 1025.47 1025.59 1025.67 1025.71 1025.71 1025.71 1025.87
1023.23 1023.39 1023.59 1023.79 1023.91 1023.99 1024.11 1024.31 1024.51 1024.67 1024.83 1024.95 1025.11 1025.31 1025.51 1025.83 1026.19 1026.47 1026.79 1026.99 1027.23 1027.35 1027.47 1027.51 1027.55 1027.59 1027.55 1027.47 1027.27 1027.11 1026.87 1026.55 1026.35 1026.07 1025.55 1025.51 1025.59 1025.75 1025.71 1025.71 1025.71 1025.91
1023.23 1023.39 1023.63 1023.79 1023.95 1024.07 1024.19 1024.39 1024.63 1024.79 1024.87 1024.99 1025.19 1025.43 1025.71 1026.03 1026.31 1026.59 1026.91 1027.19 1027.35 1027.47 1027.55 1027.63 1027.71 1027.75 1027.75 1027.59 1027.35 1027.03 1026.91 1026.67 1026.43 1026.11 1025.75 1025.47 1025.67 1025.83 1025.75 1025.67 1025.63 1025.75
1023.23 1023.43 1023.67 1023.87 1024.03 1024.15 1024.35 1024.55 1024.79 1024.91 1024.99 1025.11 1025.31 1025.59 1025.87 1026.15 1026.47 1026.75 1027.03 1027.27 1027.43 1027.55 1027.67 1027.79 1027.87 1027.83 1027.79 1027.63 1027.43 1027.27 1026.99 1026.75 1026.35 1025.95 1025.83 1025.55 1025.67 1025.87 1025.83 1025.67 1025.63 1025.67
1023.23 1023.51 1023.71 1023.95 1024.11 1024.23 1024.43 1024.71 1024.95 1025.07 1025.15 1025.23 1025.35 1025.67 1025.99 1026.31 1026.67 1026.95 1027.23 1027.39 1027.51 1027.63 1027.75 1027.83 1027.87 1027.83 1027.67 1027.43 1027.35 1027.19 1026.91 1026.63 1026.31 1026.03 1025.87 1025.59 1025.55 1025.79 1025.87 1025.71 1025.63 1025.67
1023.31 1023.51 1023.79 1023.99 1024.15 1024.31 1024.55 1024.83 1024.99 1025.11 1025.23 1025.31 1025.43 1025.71 1026.07 1026.39 1026.75 1027.07 1027.27 1027.47 1027.63 1027.75 1027.79 1027.83 1027.83 1027.75 1027.47 1027.19 1026.87 1026.71 1026.75 1026.59 1026.31 1025.99 1025.87 1025.63 1025.51 1025.55 1025.75 1025.71 1025.63 1025.79
1023.31 1023.55 1023.79 1024.03 1024.19 1024.35 1024.63 1024.91 1025.11 1025.27 1025.35 1025.39 1025.51 1025.75 1026.07 1026.47 1026.83 1027.07 1027.31 1027.51 1027.59 1027.75 1027.83 1027.91 1027.87 1027.71 1027.43 1027.19 1026.99 1026.79 1026.59 1026.43 1026.27 1026.15 1026.03 1025.87 1025.67 1025.55 1025.63 1025.63 1025.71 1025.91
1023.23 1023.51 1023.79 1023.99 1024.19 1024.43 1024.75 1025.03 1025.19 1025.35 1025.43 1025.55 1025.63 1025.75 1026.03 1026.47 1026.79 1027.03 1027.23 1027.43 1027.55 1027.63 1027.79 1027.79 1027.79 1027.67 1027.35 1027.15 1026.95 1026.83 1026.71 1026.55 1026.47 1026.35 1026.31 1026.31 1026.27 1026.15 1025.87 1025.59 1025.91 1025.99
1023.19 1023.51 1023.75 1023.95 1024.19 1024.51 1024.83 1025.07 1025.23 1025.35 1025.43 1025.59 1025.71 1025.87 1025.99 1026.23 1026.67 1026.95 1027.15 1027.31 1027.47 1027.59 1027.63 1027.71 1027.75 1027.55 1027.27 1027.15 1027.07 1026.95 1026.83 1026.71 1026.71 1026.55 1026.51 1026.47 1026.43 1026.31 1026.15 1026.03 1025.95 1025.91
1023.11 1023.39 1023.67 1023.95 1024.23 1024.55 1024.83 1025.11 1025.27 1025.39 1025.55 1025.75 1025.91 1026.07 1026.19 1026.27 1026.47 1026.75 1027.07 1027.31 1027.39 1027.47 1027.59 1027.67 1027.67 1027.51 1027.23 1027.15 1027.15 1027.07 1026.99 1026.99 1026.95 1026.83 1026.79 1026.71 1026.59 1026.51 1026.35 1026.27 1026.03 1025.83
1022.99 1023.31 1023.67 1023.91 1024.19 1024.55 1024.87 1025.07 1025.19 1025.31 1025.51 1025.67 1025.91 1026.15 1026.31 1026.39 1026.47 1026.63 1026.91 1027.15 1027.35 1027.35 1027.43 1027.67 1027.63 1027.51 1027.35 1027.27 1027.19 1027.15 1027.11 1027.15 1027.07 1026.95 1026.95 1026.87 1026.75 1026.63 1026.51 1026.23 1026.07 1025.87
1022.95 1023.23 1023.55 1023.87 1024.19 1024.51 1024.75 1024.87 1025.03 1025.19 1025.43 1025.67 1025.95 1026.19 1026.35 1026.47 1026.51 1026.67 1026.75 1026.83 1026.95 1027.15 1027.31 1027.43 1027.51 1027.47 1027.39 1027.31 1027.27 1027.27 1027.27 1027.23 1027.19 1027.03 1026.99 1026.99 1026.87 1026.63 1026.51 1026.35 1026.19 1025.95
1022.87 1023.19 1023.51 1023.79 1024.11 1024.39 1024.59 1024.75 1024.87 1025.03 1025.31 1025.51 1025.79 1026.03 1026.27 1026.43 1026.55 1026.63 1026.75 1026.71 1026.75 1026.91 1027.15 1027.27 1027.43 1027.39 1027.35 1027.31 1027.31 1027.39 1027.31 1027.31 1027.23 1027.15 1027.11 1027.03 1027.03 1026.83 1026.55 1026.39 1026.23 1025.99
1022.87 1023.19 1023.51 1023.79 1024.07 1024.31 1024.51 1024.59 1024.71 1024.91 1025.15 1025.39 1025.67 1025.91 1026.15 1026.35 1026.47 1026.59 1026.59 1026.67 1026.67 1026.79 1027.07 1027.23 1027.35 1027.31 1027.31 1027.35 1027.31 1027.35 1027.35 1027.31 1027.27 1027.19 1027.19 1027.19 1027.11 1026.99 1026.87 1026.59 1026.35 1025.99
Thickness
5638 5636 5634 5632 5629 5627 5626 5625 5624 5621 5619 5618 5617 5616 5616 5616 5614 5612 5610 5608 5606 5604 5602 5600 5598 5597 5595 5593 5592 5591 5589 5587 5585 5583 5581 5579 5576 5575 5573 5571 5570 5567
5633 5631 5629 5627 5625 5624 5623 5622 5620 5618 5617 5616 5614 5613 5613 5611 5609 5607 5604 5602 5600 5597 5596 5594 5593 5591 5589 5588 5587 5585 5583 5581 5579 5577 5575 5573 5570 5569 5567 5564 5563 5560
5628 5626 5624 5622 5622 5620 5619 5618 5617 5615 5614 5613 5612 5610 5608 5606 5604 5601 5599 5597 5594 5592 5590 5588 5587 5586 5584 5582 5580 5578 5576 5574 5573 5571 5569 5567 5564 5562 5560 5558 5555 5552
5624 5622 5621 5620 5619 5618 5616 5615 5613 5612 5611 5609 5608 5606 5604 5602 5599 5596 5594 5591 5589 5586 5585 5583 5582 5580 5578 5577 5575 5572 5570 5568 5567 5565 5563 5560 5558 5556 5554 5551 5547 5544
5621 5620 5619 5618 5617 5615 5613 5612 5610 5609 5608 5606 5604 5602 5599 5596 5593 5591 5588 5586 5583 5581 5579 5577 5576 5574 5572 5571 5569 5567 5565 5563 5561 5559 5556 5554 5552 5550 5548 5544 5539 5536
5619 5618 5616 5614 5614 5612 5610 5609 5607 5605 5604 5601 5599 5597 5594 5591 5588 5585 5582 5580 5578 5575 5573 5571 5569 5568 5566 5564 5562 5561 5559 5557 5555 5553 5551 5549 5547 5544 5541 5536 5531 5528
5616 5615 5613 5612 5611 5609 5606 5605 5603 5601 5599 5597 5594 5592 5589 5586 5583 5580 5577 5574 5572 5569 5568 5565 5563 5561 5560 5558 5556 5554 5553 5552 5550 5548 5546 5543 5540 5538 5534 5528 5523 5519
5614 5613 5611 5609 5607 5605 5603 5600 5599 5597 5594 5592 5589 5586 5584 5581 5578 5575 5572 5569 5567 5563 5561 5559 5557 5555 5553 5552 5549 5548 5548 5546 5545 5543 5540 5537 5534 5530 5527 5521 5516 5512
5612 5610 5607 5605 5602 5600 5598 5596 5594 5592 5589 5587 5584 5582 5579 5576 5573 5570 5567 5564 5560 5557 5555 5552 5550 5549 5547 5545 5543 5542 5542 5541 5540 5538 5534 5531 5527 5523 5520 5515 5510 5505
5607 5605 5602 5600 5598 5595 5593 5592 5589 5586 5584 5582 5580 5577 5574 5571 5568 5565 5561 5558 5554 5551 5549 5546 5544 5542 5541 5539 5538 5536 5536 5535 5534 5532 5529 5525 5521 5517 5513 5509 5504 5499
5603 5600 5598 5595 5593 5591 5589 5587 5585 5582 5580 5578 5575 5573 5570 5566 5563 5559 5555 5551 5548 5545 5543 5540 5538 5537 5535 5533 5532 5531 5530 5529 5528 5526 5523 5519 5515 5511 5507 5503 5499 5494
5598 5596 5594 5591 5589 5587 5586 5584 5581 5578 5576 5573 5571 5568 5564 5561 5557 5553 5550 5546 5542 5540 5537 5535 5533 5531 5529 5528 5527 5526 5525 5523 5522 5520 5517 5514 5509 5505 5502 5498 5494 5489
5595 5592 5589 5587 5585 5583 5581 5579 5577 5573 5572 5569 5566 5564 5560 5556 5552 5548 5544 5540 5537 5535 5532 5530 5528 5526 5524 5523 5522 5520 5519 5517 5515 5513 5512 5508 5504 5499 5496 5492 5489 5483
5591 5588 5586 5583 5581 5580 5578 5575 5572 5569 5567 5565 5562 5559 5555 5551 5547 5543 5539 5536 5532 5530 5528 5526 5523 5521 5519 5518 5516 5515 5513 5512 5509 5507 5506 5503 5498 5494 5490 5486 5483 5477
5587 5584 5582 5580 5577 5576 5574 5571 5568 5565 5563 5561 5558 5554 5550 5546 5542 5538 5534 5530 5527 5525 5523 5521 5518 5516 5514 5513 5512 5510 5509 5507 5504 5502 5501 5498 5493 5488 5484 5481 5477 5472
5584 5581 5579 5576 5574 5572 5569 5566 5563 5560 5559 5556 5553 5549 5546 5541 5537 5533 5529 5526 5523 5520 5517 5515 5513 5511 5509 5509 5507 5506 5504 5502 5500 5497 5495 5493 5488 5483 5478 5475 5471 5467
5579 5577 5574 5571 5569 5567 5564 5561 5558 5556 5554 5552 5548 5545 5541 5536 5533 5528 5524 5521 5518 5516 5513 5511 5509 5507 5506 5506 5504 5502 5500 5497 5495 5493 5490 5487 5483 5478 5473 5470 5466 5462
5575 5573 5570 5567 5565 5563 5560 5557 5554 5552 5549 5547 5544 5541 5536 5532 5528 5523 5520 5517 5514 5512 5509 5507 5505 5504 5503 5503 5501 5499 5496 5494 5491 5488 5485 5483 5479 5474 5470 5465 5461 5456
5571 5568 5566 5563 5561 5559 5555 5552 5549 5547 5545 5542 5540 5537 5532 5528 5524 5520 5516 5513 5511 5508 5505 5503 5501 5500 5499 5499 5497 5495 5492 5489 5487 5483 5480 5477 5473 5470 5466 5461 5457 5451
5567 5565 5561 5559 5557 5554 5551 5547 5545 5542 5541 5538 5535 5533 5529 5524 5520 5517 5514 5510 5508 5505 5502 5500 5498 5497 5496 5495 5492 5491 5488 5485 5481 5478 5474 5471 5467 5464 5461 5457 5452 5448
5563 5561 5558 5556 5553 5550 5546 5543 5541 5539 5536 5533 5530 5528 5525 5521 5517 5514 5511 5508 5505 5502 5499 5497 5495 5493 5492 5491 5488 5486 5483 5479 5476 5473 5469 5465 5462 5459 5456 5452 5449 5445
5560 5557 5555 5552 5549 5546 5542 5539 5536 5535 5532 5529 5526 5523 5520 5518 5514 5511 5508 5504 5502 5499 5496 5493 5491 5490 5489 5486 5484 5481 5478 5474 5471 5467 5464 5461 5458 5455 5451 5448 5445 5442
5557 5554 5551 5548 5545 5541 5538 5536 5534 5532 5529 5526 5522 5519 5516 5514 5511 5508 5505 5502 5499 5496 5494 5490 5488 5487 5485 5482 5479 5476 5473 5469 5466 5463 5460 5456 5453 5451 5448 5445 5442 5439
5554 5551 5548 5544 5541 5538 5535 5533 5531 5528 5526 5522 5519 5516 5513 5510 5508 5505 5502 5499 5497 5494 5491 5488 5485 5483 5481 5478 5475 5471 5468 5464 5461 5458 5455 5452 5449 5448 5445 5442 5439 5436
5550 5547 5544 5541 5537 5535 5533 5530 5528 5526 5523 5520 5516 5513 5510 5507 5505 5502 5499 5497 5494 5492 5488 5485 5482 5480 5477 5474 5470 5467 5464 5460 5457 5455 5452 5448 5446 5443 5441 5439 5436 5434
5546 5543 5540 5537 5534 5532 5530 5528 5526 5524 5520 5517 5514 5511 5507 5505 5502 5499 5497 5494 5491 5489 5485 5482 5479 5476 5473 5470 5467 5463 5461 5458 5455 5452 5449 5445 5442 5440 5437 5435 5432 5431